GLO1668 SBSP-SBRJ

Flight info

Callsign GLO1668
Flight time N/A
Altitude 25000
Route NIBRU UZ171 KEVUN
Aircraft B738/M-SDE2E3FGHIRWXY/LB1

Departure

Time 2026-05-03 22:25
Airport Congonhas–Deputado Freitas Nobre Airport (SBSP)

Arrival

Time N/A
Airport Santos Dumont Airport (SBRJ)
Time Latitude Longitude Altitude Speed Heading
2026-05-03 22:06 -23.62812 -46.65754 2600 ft 0 kts 238°
2026-05-03 22:15 -23.62805 -46.65743 2600 ft 4 kts 249°
2026-05-03 22:16 -23.62803 -46.65717 2600 ft 4 kts 295°
2026-05-03 22:16 -23.62815 -46.65700 2600 ft 0 kts 327°
2026-05-03 22:20 -23.62812 -46.65702 2600 ft 1 kts 328°
2026-05-03 22:20 -23.62796 -46.65713 2600 ft 3 kts 328°
2026-05-03 22:20 -23.62773 -46.65728 2600 ft 4 kts 329°
2026-05-03 22:21 -23.62742 -46.65747 2600 ft 5 kts 343°
2026-05-03 22:21 -23.62705 -46.65739 2601 ft 6 kts
2026-05-03 22:21 -23.62668 -46.65754 2601 ft 6 kts 329°
2026-05-03 22:21 -23.62630 -46.65781 2601 ft 7 kts 330°
2026-05-03 22:22 -23.62589 -46.65808 2601 ft 7 kts 326°
2026-05-03 22:22 -23.62543 -46.65840 2601 ft 8 kts 327°
2026-05-03 22:22 -23.62495 -46.65874 2600 ft 9 kts 326°
2026-05-03 22:22 -23.62440 -46.65912 2600 ft 10 kts 328°
2026-05-03 22:23 -23.62379 -46.65953 2600 ft 11 kts 328°
2026-05-03 22:23 -23.62314 -46.65999 2599 ft 12 kts 326°
2026-05-03 22:23 -23.62244 -46.66045 2599 ft 12 kts 338°
2026-05-03 22:23 -23.62169 -46.66090 2598 ft 13 kts 326°
2026-05-03 22:24 -23.62116 -46.66128 2596 ft 7 kts 330°
2026-05-03 22:24 -23.62061 -46.66132 2598 ft 10 kts 29°
2026-05-03 22:24 -23.62040 -46.66099 2595 ft 4 kts 86°
2026-05-03 22:24 -23.62064 -46.66065 2590 ft 8 kts 143°
2026-05-03 22:25 -23.62301 -46.65899 2599 ft 93 kts 148°
2026-05-03 22:25 -23.63107 -46.65333 2825 ft 169 kts 147°
2026-05-03 22:25 -23.64162 -46.64517 3784 ft 192 kts 137°
2026-05-03 22:25 -23.64958 -46.63369 5095 ft 195 kts 120°
2026-05-03 22:26 -23.65607 -46.61989 5767 ft 218 kts 117°
2026-05-03 22:26 -23.66338 -46.60401 6242 ft 243 kts 117°
2026-05-03 22:26 -23.67135 -46.58739 7091 ft 251 kts 118°
2026-05-03 22:26 -23.67992 -46.57030 7966 ft 265 kts 119°
2026-05-03 22:27 -23.68910 -46.55261 8971 ft 274 kts 120°
2026-05-03 22:27 -23.69876 -46.53429 10156 ft 278 kts 120°
2026-05-03 22:27 -23.70849 -46.51596 11342 ft 280 kts 120°
2026-05-03 22:27 -23.71729 -46.49707 12538 ft 281 kts 106°
2026-05-03 22:28 -23.71895 -46.47577 13651 ft 286 kts 87°
2026-05-03 22:28 -23.71634 -46.45391 14599 ft 296 kts 84°
2026-05-03 22:28 -23.71297 -46.43126 15431 ft 309 kts 83°
2026-05-03 22:28 -23.70935 -46.40769 16241 ft 321 kts 83°
2026-05-03 22:29 -23.70565 -46.38327 17065 ft 331 kts 82°
2026-05-03 22:29 -23.70192 -46.35814 17911 ft 339 kts 81°
2026-05-03 22:29 -23.69822 -46.33284 18851 ft 344 kts 81°
2026-05-03 22:29 -23.69443 -46.30678 19693 ft 352 kts 81°
2026-05-03 22:30 -23.69057 -46.27996 20419 ft 363 kts 82°
2026-05-03 22:30 -23.68664 -46.25249 21164 ft 371 kts 82°
2026-05-03 22:30 -23.68263 -46.22438 21906 ft 379 kts 83°
2026-05-03 22:30 -23.67853 -46.19566 22610 ft 388 kts 83°
2026-05-03 22:31 -23.67432 -46.16628 23307 ft 395 kts 83°
2026-05-03 22:31 -23.67003 -46.13639 23967 ft 404 kts 84°
2026-05-03 22:31 -23.66565 -46.10582 24604 ft 412 kts 84°
2026-05-03 22:31 -23.66123 -46.07497 25174 ft 421 kts 83°
2026-05-03 22:32 -23.65664 -46.04288 25229 ft 433 kts 83°
2026-05-03 22:32 -23.65192 -46.01008 25235 ft 431 kts 83°
2026-05-03 22:32 -23.64734 -45.97842 25241 ft 427 kts 83°
2026-05-03 22:32 -23.64271 -45.94638 25238 ft 428 kts 83°
2026-05-03 22:33 -23.63807 -45.91428 25241 ft 429 kts 83°
2026-05-03 22:33 -23.63342 -45.88214 25242 ft 429 kts 83°
2026-05-03 22:33 -23.62875 -45.84993 25246 ft 429 kts 83°
2026-05-03 22:33 -23.62408 -45.81779 25248 ft 429 kts 83°
2026-05-03 22:34 -23.61942 -45.78567 25241 ft 429 kts 83°
2026-05-03 22:34 -23.61475 -45.75357 25241 ft 429 kts 83°
2026-05-03 22:34 -23.61008 -45.72149 25232 ft 429 kts 83°
2026-05-03 22:34 -23.60540 -45.68938 25234 ft 428 kts 83°
2026-05-03 22:35 -23.60072 -45.65736 25242 ft 428 kts 83°
2026-05-03 22:35 -23.59604 -45.62537 25235 ft 427 kts 82°
2026-05-03 22:35 -23.59137 -45.59343 25237 ft 427 kts 82°
2026-05-03 22:35 -23.58668 -45.56150 25235 ft 426 kts 82°
2026-05-03 22:36 -23.58199 -45.52960 25235 ft 426 kts 82°
2026-05-03 22:36 -23.57731 -45.49775 25240 ft 425 kts 82°
2026-05-03 22:36 -23.57258 -45.46597 25239 ft 425 kts 81°
2026-05-03 22:36 -23.56677 -45.43432 25243 ft 425 kts 78°
2026-05-03 22:37 -23.56011 -45.40294 25236 ft 426 kts 77°
2026-05-03 22:37 -23.55315 -45.37155 25226 ft 426 kts 77°
2026-05-03 22:37 -23.54619 -45.34018 25204 ft 426 kts 77°
2026-05-03 22:37 -23.53933 -45.30888 25208 ft 424 kts 77°
2026-05-03 22:38 -23.53259 -45.27766 25231 ft 423 kts 77°
2026-05-03 22:38 -23.52590 -45.24644 25216 ft 424 kts 77°
2026-05-03 22:38 -23.51925 -45.21519 25233 ft 424 kts 78°
2026-05-03 22:38 -23.51267 -45.18424 25221 ft 425 kts 78°
2026-05-03 22:39 -23.50600 -45.15288 25218 ft 426 kts 78°
2026-05-03 22:39 -23.50531 -45.14966 25216 ft 426 kts 77°
2026-05-03 22:40 -23.49880 -45.11912 25219 ft 426 kts 78°
2026-05-03 22:40 -23.49209 -45.08764 25218 ft 426 kts 77°
2026-05-03 22:40 -23.48537 -45.05621 25211 ft 426 kts 77°
2026-05-03 22:40 -23.48052 -45.03355 25209 ft 426 kts 77°
2026-05-03 22:42 -23.47548 -45.01000 25211 ft 426 kts 77°
2026-05-03 22:42 -23.46874 -44.97857 25212 ft 426 kts 77°
2026-05-03 22:42 -23.46202 -44.94725 25212 ft 425 kts 77°
2026-05-03 22:42 -23.45516 -44.91586 24975 ft 427 kts 77°
2026-05-03 22:43 -23.44819 -44.88446 24503 ft 427 kts 77°
2026-05-03 22:43 -23.44118 -44.85307 23986 ft 426 kts 77°
2026-05-03 22:43 -23.43419 -44.82175 23435 ft 425 kts 78°
2026-05-03 22:43 -23.42722 -44.79052 22876 ft 425 kts 78°
2026-05-03 22:44 -23.42026 -44.75936 22362 ft 422 kts 77°
2026-05-03 22:44 -23.41569 -44.73887 22074 ft 419 kts 77°
2026-05-03 22:44 -23.40655 -44.69792 21434 ft 413 kts 77°
2026-05-03 22:44 -23.40207 -44.67785 21137 ft 411 kts 77°
2026-05-03 22:45 -23.39537 -44.64788 20794 ft 403 kts 77°
2026-05-03 22:45 -23.38884 -44.61867 20575 ft 392 kts 76°
2026-05-03 22:45 -23.38244 -44.59006 20310 ft 386 kts 76°
2026-05-03 22:45 -23.37612 -44.56187 19985 ft 382 kts 76°
2026-05-03 22:46 -23.37502 -44.55693 19905 ft 381 kts 76°
2026-05-03 22:46 -23.37181 -44.54263 19671 ft 381 kts 76°
2026-05-03 22:46 -23.36557 -44.51475 19228 ft 378 kts 76°
2026-05-03 22:47 -23.35935 -44.48703 18775 ft 376 kts 76°
2026-05-03 22:47 -23.35317 -44.45952 18304 ft 374 kts 76°
2026-05-03 22:47 -23.34701 -44.43215 17837 ft 371 kts 75°
2026-05-03 22:47 -23.33939 -44.40541 17260 ft 370 kts 67°
2026-05-03 22:48 -23.32887 -44.37987 16769 ft 368 kts 63°
2026-05-03 22:48 -23.31761 -44.35504 16257 ft 365 kts 62°
2026-05-03 22:48 -23.30908 -44.33645 15917 ft 363 kts 62°
2026-05-03 22:48 -23.30494 -44.32735 15756 ft 361 kts 63°
2026-05-03 22:49 -23.30376 -44.32474 15706 ft 361 kts 63°
2026-05-03 22:49 -23.29505 -44.30535 15345 ft 357 kts 63°
2026-05-03 22:49 -23.28769 -44.28873 15030 ft 351 kts 63°
2026-05-03 22:50 -23.28262 -44.27716 14814 ft 347 kts 64°
2026-05-03 22:50 -23.27243 -44.25374 14381 ft 338 kts 64°
2026-05-03 22:50 -23.26254 -44.23087 13959 ft 331 kts 64°
2026-05-03 22:50 -23.25288 -44.20847 13544 ft 324 kts 64°
2026-05-03 22:51 -23.24337 -44.18648 13134 ft 318 kts 64°
2026-05-03 22:51 -23.23413 -44.16507 12741 ft 308 kts 64°
2026-05-03 22:51 -23.22505 -44.14393 12350 ft 310 kts 65°
2026-05-03 22:51 -23.21587 -44.12270 11958 ft 312 kts 65°
2026-05-03 22:52 -23.20672 -44.10110 11560 ft 318 kts 64°
2026-05-03 22:52 -23.19718 -44.07944 11200 ft 317 kts 64°
2026-05-03 22:52 -23.18765 -44.05823 11037 ft 310 kts 64°
2026-05-03 22:52 -23.17793 -44.03745 10868 ft 316 kts 63°
2026-05-03 22:53 -23.16780 -44.01605 10696 ft 319 kts 62°
2026-05-03 22:53 -23.15790 -43.99476 10521 ft 313 kts 64°
2026-05-03 22:53 -23.14886 -43.97355 10342 ft 302 kts 65°
2026-05-03 22:53 -23.14044 -43.95315 10170 ft 291 kts 66°
2026-05-03 22:54 -23.13220 -43.93331 10020 ft 286 kts 64°
2026-05-03 22:54 -23.12339 -43.91376 9873 ft 291 kts 64°
2026-05-03 22:54 -23.11473 -43.89372 9721 ft 294 kts 66°
2026-05-03 22:54 -23.10634 -43.87349 9560 ft 293 kts 65°
2026-05-03 22:55 -23.09760 -43.85352 9407 ft 292 kts 64°
2026-05-03 22:55 -23.08931 -43.83335 9258 ft 292 kts 65°
2026-05-03 22:55 -23.08092 -43.81335 9092 ft 289 kts 65°
2026-05-03 22:55 -23.07245 -43.79369 8936 ft 286 kts 65°
2026-05-03 22:56 -23.06397 -43.77424 8783 ft 284 kts 65°
2026-05-03 22:56 -23.05558 -43.75481 8636 ft 284 kts 65°
2026-05-03 22:56 -23.04723 -43.73541 8488 ft 284 kts 65°
2026-05-03 22:56 -23.03887 -43.71599 8335 ft 284 kts 65°
2026-05-03 22:57 -23.03053 -43.69661 8150 ft 284 kts 65°
2026-05-03 22:57 -23.02201 -43.67706 7885 ft 288 kts 65°
2026-05-03 22:57 -23.01341 -43.65747 7624 ft 289 kts 65°
2026-05-03 22:57 -23.00481 -43.63778 7361 ft 287 kts 66°
2026-05-03 22:58 -22.99633 -43.61842 7138 ft 280 kts 66°
2026-05-03 22:58 -22.98801 -43.59947 6972 ft 276 kts 66°
2026-05-03 22:58 -22.97980 -43.58082 6807 ft 273 kts 66°
2026-05-03 22:58 -22.97162 -43.56224 6651 ft 272 kts 66°
2026-05-03 22:59 -22.96348 -43.54377 6491 ft 271 kts 66°
2026-05-03 22:59 -22.95540 -43.52533 6331 ft 272 kts 68°
2026-05-03 22:59 -22.95159 -43.50553 6122 ft 269 kts 99°
2026-05-03 22:59 -22.95612 -43.48626 6089 ft 264 kts 112°
2026-05-03 23:00 -22.96273 -43.46762 5965 ft 265 kts 115°
2026-05-03 23:00 -22.96971 -43.44915 5834 ft 265 kts 115°
2026-05-03 23:00 -22.97671 -43.43063 5667 ft 265 kts 115°
2026-05-03 23:00 -22.98359 -43.41220 5579 ft 262 kts 115°
2026-05-03 23:01 -22.99039 -43.39392 5456 ft 257 kts 115°
2026-05-03 23:01 -22.99664 -43.37693 5343 ft 235 kts 115°
2026-05-03 23:01 -23.00239 -43.36112 5200 ft 216 kts 115°
2026-05-03 23:01 -23.00767 -43.34655 5075 ft 200 kts 115°
2026-05-03 23:02 -23.01260 -43.33298 4966 ft 186 kts 116°
2026-05-03 23:02 -23.01721 -43.32033 4800 ft 176 kts 116°
2026-05-03 23:02 -23.02155 -43.30839 4726 ft 164 kts 116°
2026-05-03 23:02 -23.02567 -43.29710 4662 ft 162 kts 116°
2026-05-03 23:03 -23.02981 -43.28570 4562 ft 163 kts 116°
2026-05-03 23:03 -23.03398 -43.27428 4420 ft 157 kts 116°
2026-05-03 23:03 -23.03792 -43.26342 4475 ft 156 kts 116°
2026-05-03 23:03 -23.04199 -43.25228 4435 ft 163 kts 117°
2026-05-03 23:04 -23.04622 -43.24069 4190 ft 164 kts 116°
2026-05-03 23:04 -23.05035 -43.22925 3961 ft 161 kts 116°
2026-05-03 23:04 -23.05440 -43.21808 3731 ft 157 kts 116°
2026-05-03 23:04 -23.05836 -43.20710 3502 ft 155 kts 116°
2026-05-03 23:05 -23.06231 -43.19633 3274 ft 153 kts 116°
2026-05-03 23:05 -23.06626 -43.18536 3236 ft 157 kts 116°
2026-05-03 23:05 -23.07024 -43.17437 3204 ft 155 kts 116°
2026-05-03 23:05 -23.07408 -43.16370 3195 ft 151 kts 116°
2026-05-03 23:06 -23.07786 -43.15320 3201 ft 145 kts 116°
2026-05-03 23:06 -23.08145 -43.14318 3186 ft 140 kts 117°
2026-05-03 23:06 -23.08505 -43.13332 3200 ft 142 kts 117°
2026-05-03 23:06 -23.08694 -43.12278 3174 ft 152 kts 82°
2026-05-03 23:07 -23.08037 -43.11397 3187 ft 159 kts 25°
2026-05-03 23:07 -23.06947 -43.11407 3194 ft 162 kts 346°
2026-05-03 23:07 -23.05807 -43.11634 2913 ft 166 kts 349°
2026-05-03 23:07 -23.04683 -43.11831 2694 ft 161 kts 349°
2026-05-03 23:08 -23.03598 -43.12017 2503 ft 156 kts 349°
2026-05-03 23:08 -23.02546 -43.12199 2314 ft 150 kts 346°
2026-05-03 23:08 -23.01538 -43.12392 2122 ft 146 kts 348°
2026-05-03 23:08 -23.00540 -43.12577 1931 ft 145 kts 348°
2026-05-03 23:09 -22.99555 -43.12755 1735 ft 142 kts 347°
2026-05-03 23:09 -22.98583 -43.12936 1561 ft 141 kts 348°
2026-05-03 23:09 -22.97618 -43.13115 1378 ft 140 kts 348°
2026-05-03 23:09 -22.96661 -43.13293 1197 ft 138 kts 348°
2026-05-03 23:10 -22.95745 -43.13550 1060 ft 136 kts 333°
2026-05-03 23:10 -22.94949 -43.14106 956 ft 136 kts 316°
2026-05-03 23:10 -22.94341 -43.14890 815 ft 138 kts 303°
2026-05-03 23:10 -22.93788 -43.15753 664 ft 139 kts 313°
2026-05-03 23:11 -22.92966 -43.16262 528 ft 141 kts 348°
2026-05-03 23:11 -22.91938 -43.16225 223 ft 157 kts 354°
2026-05-03 23:11 -22.90632 -43.16267 687 ft 214 kts 359°
2026-05-03 23:11 -22.88980 -43.16219 1295 ft 261 kts
2026-05-03 23:12 -22.86983 -43.16034 1725 ft 305 kts
2026-05-03 23:12 -22.84883 -43.15680 3239 ft 306 kts
2026-05-03 23:12 -22.82606 -43.15195 3446 ft 368 kts 15°
2026-05-03 23:12 -22.80059 -43.14059 3545 ft 423 kts 28°
2026-05-03 23:13 -22.77494 -43.12250 3962 ft 456 kts 39°
2026-05-03 23:13 -22.75033 -43.09977 4465 ft 476 kts 43°
2026-05-03 23:13 -22.72683 -43.07417 4829 ft 493 kts 50°
2026-05-03 23:13 -22.70659 -43.04479 4714 ft 463 kts 59°
2026-05-03 23:14 -22.69261 -43.01545 4703 ft 415 kts 70°
2026-05-03 23:14 -22.68468 -42.98709 4707 ft 375 kts 81°
2026-05-03 23:14 -22.68166 -42.96032 4713 ft 343 kts 90°
2026-05-03 23:14 -22.68494 -42.93617 4706 ft 311 kts 116°
2026-05-03 23:15 -22.69726 -42.91858 4723 ft 282 kts 142°
2026-05-03 23:15 -22.71207 -42.90569 4714 ft 265 kts 144°
2026-05-03 23:15 -22.72649 -42.89370 4711 ft 259 kts 145°
2026-05-03 23:15 -22.74078 -42.88191 4719 ft 257 kts 146°
2026-05-03 23:16 -22.75551 -42.87074 4723 ft 259 kts 149°
2026-05-03 23:16 -22.77124 -42.86128 4717 ft 259 kts 158°
2026-05-03 23:16 -22.78823 -42.85529 4691 ft 255 kts 170°
2026-05-03 23:16 -22.80547 -42.85208 4703 ft 248 kts 172°
2026-05-03 23:17 -22.82229 -42.84917 4702 ft 242 kts 172°
2026-05-03 23:17 -22.83885 -42.84636 4712 ft 239 kts 172°
2026-05-03 23:17 -22.85541 -42.84357 4721 ft 242 kts 172°
2026-05-03 23:17 -22.87248 -42.84073 4720 ft 254 kts 172°
2026-05-03 23:18 -22.89016 -42.83778 4576 ft 261 kts 172°
2026-05-03 23:18 -22.90806 -42.83479 4297 ft 257 kts 172°
2026-05-03 23:18 -22.92555 -42.83187 4018 ft 252 kts 172°
2026-05-03 23:18 -22.94268 -42.82897 3743 ft 247 kts 172°
2026-05-03 23:19 -22.95953 -42.82614 3456 ft 243 kts 172°
2026-05-03 23:19 -22.97622 -42.82342 3174 ft 240 kts 172°
2026-05-03 23:19 -22.99253 -42.82289 2989 ft 231 kts 187°
2026-05-03 23:19 -23.00742 -42.82780 2825 ft 218 kts 206°
2026-05-03 23:20 -23.01913 -42.83742 2638 ft 207 kts 226°
2026-05-03 23:20 -23.02754 -42.84963 2463 ft 197 kts 233°
2026-05-03 23:20 -23.03515 -42.86162 2307 ft 188 kts 234°
2026-05-03 23:20 -23.04230 -42.87292 2222 ft 176 kts 234°
2026-05-03 23:21 -23.04864 -42.88430 2211 ft 178 kts 252°
2026-05-03 23:21 -23.04734 -42.89728 2245 ft 177 kts 285°
2026-05-03 23:21 -23.04375 -42.90973 2217 ft 163 kts 283°
2026-05-03 23:21 -23.04093 -42.92100 2159 ft 148 kts 281°
2026-05-03 23:22 -23.03660 -42.94173 2104 ft 139 kts 278°
2026-05-03 23:22 -23.03478 -42.95201 1934 ft 138 kts 278°
2026-05-03 23:22 -23.03311 -42.96222 1772 ft 137 kts 277°
2026-05-03 23:23 -23.03155 -42.97243 1615 ft 137 kts 277°
2026-05-03 23:23 -23.03006 -42.98262 1444 ft 137 kts 278°
2026-05-03 23:23 -23.02625 -42.99220 1283 ft 143 kts 297°
2026-05-03 23:23 -23.02143 -43.00171 1116 ft 147 kts 294°
2026-05-03 23:24 -23.01665 -43.01141 987 ft 145 kts 294°
2026-05-03 23:24 -23.01190 -43.02116 937 ft 146 kts 294°
2026-05-03 23:24 -23.00723 -43.03079 928 ft 144 kts 294°
2026-05-03 23:24 -23.00255 -43.04044 926 ft 145 kts 294°
2026-05-03 23:25 -22.99789 -43.05011 927 ft 144 kts 294°
2026-05-03 23:25 -22.99339 -43.05949 925 ft 137 kts 296°
2026-05-03 23:25 -22.98906 -43.06852 915 ft 133 kts 297°
2026-05-03 23:25 -22.98482 -43.07738 917 ft 132 kts 297°
2026-05-03 23:26 -22.98059 -43.08625 920 ft 132 kts 297°